Regional Weather Roundup
Issued by NWS Pendleton, OR

Home | Current Version | Previous Version | Text Only | Print | Product List | Glossary On
Versions: 1 2 3 4 5 6 7 8 9 10 11 12 13 14 15 16 17 18 19 20 21 22 23 24 25 26 27 28 29 30 31 32 33 34 35 36 37 38 39 40 41 42 43 44 45 46 47 48 49 50
000
ASUS46 KPDT 181825
RWRPDT
PENDLETON REGIONAL WEATHER ROUNDUP
NATIONAL WEATHER SERVICE PENDLETON OREGON
1000 AM PST SUN FEB 18 2018

NOTE: FAIR INDICATES FEW OR NO CLOUDS BELOW 12,000 FEET WITH NO
SIGNIFICANT WEATHER AND/OR OBSTRUCTIONS TO VISIBILITY.

# INDICATES UNOFFICIAL STATION AND DATA

WAZ520-181910-
EAST SLOPES OF WASHINGTON CASCADES

CITY            SKY/WX      TMP DP  RH  WIND    PRES   REMARKS
#BULLFROG       N/A         31  24  75  CALM    N/A
#CLE ELUM HS    N/A         32  23  69  CALM    29.59R
#EASTON DOT     N/A         27  23  85  N1      N/A
#ELK HTS DOT    N/A         30  30  100 CALM    N/A
#GLENWOOD       N/A         31  28  88  S7      29.67R
#NELSON 3SW     N/A         26  21  81  CALM    29.86R
#NILE           N/A         30  23  75  W1      28.88F
#TEANAWAY 4NE   N/A         27  22  81  CALM    N/A
#TROUT LAKE 1NE N/A         30  28  92  E2      29.67S
#TROUT LAKE 1E  N/A         31  28  88  CALM    29.64S
$$

WAZ521-181910-
SIMCOE HIGHLANDS

CITY            SKY/WX      TMP DP  RH  WIND    PRES   REMARKS
#BICKLETON HS   N/A         30  20  66  W26     29.24R WCI 16
#SATUS PASS DOT N/A         28  18  66  CALM    N/A
#CENTERVILLE 1SWN/A         30  26  85  CALM    29.67S
#GOLDENDALE 1NE N/A         33  15  47  SW2     N/A
#GOLDENDALE 4W  N/A         34  18  51  SW2     29.70S
#GOODNOE HILLS  N/A         36  24  61  W12     29.58S WCI 28
#LYLE 6NE       N/A         30  29  96  CALM    29.70R
#PITT 4SE       N/A         28  27  96  CALM    29.71R
$$

WAZ026-181910-
KITTITAS VALLEY

CITY            SKY/WX      TMP DP  RH  WIND    PRES   REMARKS
ELLENSBURG AP   CLOUDY      35  22  59  W3      29.61R
6HR MIN TEMP:   27; 6HR MAX TEMP:   35;

#ELLENSBURG CWU N/A         33  24  69  CALM    29.61R
#ELLENSBURG 3NE N/A         33  24  69  CALM    27.71R
#ELLENSBURG 1E  N/A         32  24  72  CALM    29.72R
#KITTITAS 3S    N/A         33  26  75  E6      29.66R
#MANASTASH RDG  N/A         30  29  96  N6      N/A
#ROCKY CYN DOT  N/A         32  25  75  NW1     N/A
#RYEGRASS DOT   N/A         29  20  69  CALM    N/A
$$

WAZ027-181910-
YAKIMA VALLEY

CITY            SKY/WX      TMP DP  RH  WIND    PRES   REMARKS
SUNNYSIDE AP    MOCLDY      39  23  52  N3      29.66R
YAKIMA AIRPORT  MOCLDY      39  25  57  CALM    29.64R
6HR MIN TEMP:   29; 6HR MAX TEMP:   39;

YAKIMA-VAGABOND SUNNY       38  20  48  NE7     29.60R
6HR MIN TEMP:   30; 6HR MAX TEMP:   38;

#DONALD 2NE     N/A         42  -3  14  CALM    28.50R
#GRANDVIEW      N/A         40  22  48  CALM    29.68R
#MABTON         N/A         41  24  50  CALM    29.65S
#MOXEE 2E       N/A         35  N/A N/A E3      29.93S
#NACHES 2SW     N/A         35  26  69  E2      29.59S
#OUTLOOK DOT    N/A         39  21  48  NW2     29.62R
#PARKER DOT     N/A         39  22  50  CALM    29.63R
#TERRACE HTS    N/A         40  27  59  CALM    29.63R
#TOPPENISH      N/A         39  23  52  CALM    29.59R
#I82 S UMTANUM RN/A         36  19  50  N9      N/A
#UNION GAP DOT  N/A         38  25  59  CALM    29.67R
#W YAKIMA       N/A         37  24  59  E3      29.66R
#WHITE SWAN 5E  N/A         40  24  52  CALM    29.66R
#WILEY CITY 3W  N/A         35  23  61  CALM    29.59R
#ZILLAH DOT     N/A         39  23  52  N3      N/A
$$

WAZ028-181910-
LOWER COLUMBIA BASIN...WASHINGTON

CITY            SKY/WX      TMP DP  RH  WIND    PRES   REMARKS
PASCO           CLOUDY      40  28  62  SW12    29.69R WCI 33
6HR MIN TEMP:   36; 6HR MAX TEMP:   40;

PROSSER AWOS    N/A         39  23  52  E5      29.70R
RICHLAND AWOS   LGT SNOW    38  29  70  NW8     29.70R
#BENTON CITY    N/A         38  25  59  CALM    29.59R
#CONNELL 5N     N/A         32  27  82  CALM    29.67R
#CONNELL 5NW    N/A         32  27  82  N3      29.63R
#ELTOPIA 6NW    N/A         35  29  78  CALM    28.65R
#KAHLOTUS       N/A         33  30  89  NW7     29.66R
#KENNEWICK 3S   N/A         38  30  73  SE7     29.68R
#PATERSON       N/A         39  29  67  W16G24  29.68R WCI 30
#PROSSER DOT    N/A         41  23  48  CALM    29.68R
#SAGEMOOR 2W    N/A         37  27  67  W5      29.55R
#TOUCHET 2S     N/A         43  28  55  SW15G26 29.67R WCI 36
#WEST PASCO     N/A         44  31  60  CALM    29.64R
$$

WAZ029-181910-
FOOTHILLS OF THE BLUES...WASHINGTON

CITY            SKY/WX      TMP DP  RH  WIND    PRES   REMARKS
WALLA WALLA AP  PTCLDY      38  26  62  SW9     29.66S
6HR MIN TEMP:   35; 6HR MAX TEMP:   41;

#CLYDE 6NW      N/A         35  29  78  SW10    29.65S
#DELANEY DOT    N/A         38  28  67  S12     29.66R WCI 30
#LOWDEN 2SE     N/A         41  27  57  W21G32  29.64S WCI 32
#PLEASANT VIEW 1N/A         35  31  85  S9      29.69R
#PRESCOTT       N/A         43  31  62  CALM    29.65S
#WHITMAN COLLEGEN/A         39  26  59  SW18    29.73S WCI 30
#WAITSBURG 5S   N/A         34  28  78  SW9     29.77R
#WAITSBURG 6SSE N/A         35  24  64  SW8     29.52R
#WALLA WALLA 5E N/A         37  29  72  SW16G24 N/A    WCI 28
#WHITMAN MISSIONN/A         41  28  59  E2      29.70S
$$

WAZ030-181910-
BLUE MOUNTAINS...WASHINGTON

CITY            SKY/WX      TMP DP  RH  WIND    PRES   REMARKS
#DIXIE 5SE      N/A         28  24  85  SW20G26 29.51R WCI 15
$$

ORZ009-041-WAZ024-181910-
COLUMBIA RIVER GORGE

CITY            SKY/WX      TMP DP  RH  WIND    PRES   REMARKS
HOOD RIVER AP   LGT SNOW    34  32  92  CALM    29.70S
THE DALLES AP   MOCLDY      39  35  85  N6      29.72R
6HR MIN TEMP:   34; 6HR MAX TEMP:   40; 6HR PCP:  0.05;

#ARLINGTON AIRPON/A         38  28  67  W14     29.70S WCI 30
#ARLINGTON HS   N/A         40  25  55  W8      29.61F
#CELILO DOT     N/A         37  29  72  CALM    N/A
#LYLE           N/A         37  33  85  CALM    29.73R
#MARYHILL       N/A         36  29  75  N5      29.55S
#MURDOCK        N/A         38  34  85  NW3     29.68S
#RUFUS DOT      N/A         39  N/A N/A W10     N/A
#SMITHVILLE     N/A         38  34  85  NW3     29.79R

$$

ORZ510-181910-
NORTH CENTRAL OREGON

CITY            SKY/WX      TMP DP  RH  WIND    PRES   REMARKS
#ANTELOPE       N/A         28  24  85  SW7     29.57R
#CHENOWITH 1W   N/A         32  27  82  W9      N/A
#COW CYN RST AREN/A         28  22  78  SW8     N/A
#DUFUR          N/A         36  29  75  CALM    29.65S
#DUFUR 9E       N/A         30  25  81  SW15    29.72S WCI 19
#GRASS VALLEY 1SN/A         32  25  75  SW16G24 29.67S WCI 21
#KENT DOT       N/A         31  17  56  SW17    N/A    WCI 20
#MAUPIN SCHOOL  N/A         37  26  64  CALM    29.75S
#SHANIKO 5WSW   N/A         25  N/A N/A SW21G28 N/A    WCI 10
#SHANIKO 4NW    N/A         27  21  78  SW10    29.59S
#TYGH VALLEY 2NEN/A         35  29  78  N12     29.69F WCI 27
#WAPANITIA AIRPON/A         32  27  82  W6      29.71F
#WASCO DOT      N/A         37  28  70  NE7     N/A
$$

ORZ511-181910-
CENTRAL OREGON

CITY            SKY/WX      TMP DP  RH  WIND    PRES   REMARKS
BEND AIRPORT    LGT SNOW    28  25  88  N5      29.68R
PRINEVILLE AP   MOCLDY      28  23  81  W9      29.67S
REDMOND AIRPORT CLOUDY      30  23  75  W7      29.67F
6HR MIN TEMP:   28; 6HR MAX TEMP:   34; 6HR PCP:  TRACE;

#ASHWOOD SCHOOL N/A         31  25  78  S2      29.66S
#BEND 1SW       N/A         28  23  81  CALM    N/A
#BEND-AWBREY    N/A         28  24  85  N1      29.71R
#BEND-KIM LN    N/A         26  23  88  W9      29.65R
#CULVER         N/A         31  23  72  S7      29.55R
#CULVER 8W      N/A         32  18  56  SW5     29.72R
#LAKE BILLY CHINN/A         30  N/A N/A W5      29.81S
#POWELL BUTTE   N/A         27  20  74  W7      29.65S
#PRINEVILLE     N/A         29  23  78  NW3     29.79S
#PRINEVILLE 3N  N/A         30  23  75  W12     29.71R WCI 20
#WARM SPRINGS   N/A         35  29  78  CALM    29.58F

$$


ORZ509-181910-
EAST SLOPES OF OREGON CASCADES

CITY            SKY/WX      TMP DP  RH  WIND    PRES   REMARKS
SISTERS AWOS    N/A         28  23  81  W13     29.66S WCI 17
#BLUE BOX PASS  N/A         22  N/A N/A CALM    N/A
#CAMP SHERMAN   N/A         28  23  81  CALM    29.80F
#LA PINE DOT    N/A         29  19  66  W8      N/A
#LA PINE 4NW    N/A         24  19  81  W2      29.75R
#LAVA BUTTE DOT N/A         26  17  68  SW1     N/A
#SISTERS ODOT   N/A         27  20  74  SW5     N/A
#SISTERS 3N     N/A         30  21  69  N3      29.94S
#SUNRIVER       N/A         26  22  85  S1      29.72R
#TUMALO 3W      N/A         26  21  81  W5      29.57R
#WANOGA BUTTE D N/A         17  13  84  W10     N/A

$$

ORZ044-181910-
LOWER COLUMBIA BASIN...OREGON

CITY            SKY/WX      TMP DP  RH  WIND    PRES   REMARKS
HERMISTON       MOCLDY      39  25  57  W17     29.68R WCI 30
6HR MIN TEMP:   35; 6HR MAX TEMP:   42;

#BOARDMAN SCHOOLN/A         41  27  57  SW15G24 29.69R WCI 33
#BOARDMAN 8SW   N/A         40  29  64  W3      29.69R
#ECHO 8SW       N/A         39  24  54  CALM    29.70R
#I-84 EX 198 DOTN/A         38  25  59  NE18    N/A    WCI 28
#IONE SCHOOL    N/A         37  24  59  SW5     29.70F
#UMATILLA       N/A         40  26  57  W13G28  29.63R WCI 32
$$

ORZ507-181910-
NORTHERN FOOTHILLS OF THE BLUES

CITY            SKY/WX      TMP DP  RH  WIND    PRES   REMARKS
PENDLETON AIRPT PTCLDY      38  28  67  W16     29.66S WCI 29
6HR MIN TEMP:   32; 6HR MAX TEMP:   38; 6HR PCP:  0.02;

#ADAMS 3WNW     N/A         36  28  72  W13     29.68F WCI 27
#ATHENA         N/A         36  28  72  SW6     29.71F
#HELIX SCHOOL   N/A         34  27  75  W14G25  29.68R WCI 25
#HELIX 3N       N/A         34  27  75  SW22G31 29.67R WCI 22
#HOLDMAN 5SE    N/A         36  27  69  SW13    29.67S WCI 27
#HOLDMAN 6E     N/A         34  26  72  SW15G24 29.48R WCI 24
#M-F GROVE ELEM N/A         40  26  57  SW8     29.65R
#M-FREEWATER 5SEN/A         38  27  64  S15     29.67S WCI 29
#PENDLETON DNTN N/A         39  29  67  SW2     N/A
#PDT AQUATIC CTRN/A         40  30  67  W8      29.67S
#PDT SUNRIDGE   N/A         39  29  67  SW7     29.68F
#PENDLETON 6SE  N/A         39  25  57  W17     29.65S WCI 30
#PENDLETON 7NW  N/A         40  28  62  SW7     N/A
#PILOT ROCK 1S  N/A         40  22  48  W2      29.68S
#PILOT ROCK     N/A         39  24  54  CALM    29.68F
#TUTUILLA       N/A         38  26  62  W10     29.71S
#UMAPINE 2E     N/A         42  30  62  SW14    29.65R WCI 35

$$

ORZ508-181910-
SOUTHERN FOOTHILLS OF THE BLUES

CITY            SKY/WX      TMP DP  RH  WIND    PRES   REMARKS
#AJAX           N/A         33  17  51  NW1     29.83R
#CONDON 5W      N/A         28  21  75  CALM    29.58S
#FOSSIL SCHOOL  N/A         32  23  69  W10     29.61S
#HEPPNER EOC    N/A         35  24  64  W8      29.60F
#HEPPNER 4NE    N/A         31  24  75  SW10    29.66S
#LEXINGTON 2SE  N/A         39  23  52  CALM    29.61F
#MIKKALO        N/A         36  21  54  SW12    29.77F WCI 28
#OLEX 4N        N/A         37  28  70  SW16G24 29.66F WCI 28
#RUGGS 5NE      N/A         33  20  58  SW9     29.78S
#RUGGS 2SW      N/A         32  22  66  W15     29.68F WCI 22

$$

ORZ502-503-181910-
BLUE MOUNTAINS

CITY            SKY/WX      TMP DP  RH  WIND    PRES   REMARKS
MEACHAM         MOCLDY      28  20  71  VRB5    29.58F
#BATTLE MTN DOT N/A         27  15  60  S3      N/A
#GRANITE        N/A         26  14  60  N3      29.21S
#HARDMAN 10S    N/A         24  18  77  S8      29.78R
#LADD CYN SMT   N/A         29  18  63  NW7     N/A
#LADD CREEK ODOTN/A         31  -3  22  NE7     N/A
#N POWDER DOT   N/A         33  19  56  CALM    N/A
#PIKES PEAK     N/A         26  20  78  SW28G40 27.99S WCI 10
#SUMMERVILLE 5NWN/A         35  21  56  W1      27.56S
#TROY SCHOOL    N/A         40  26  57  SW5     29.51R
#UKIAH          N/A         30  22  72  SW2     29.59S
#WESTON 4E      N/A         27  24  88  S8      29.65S
$$

ORZ505-181910-
JOHN DAY BASIN

CITY            SKY/WX      TMP DP  RH  WIND    PRES   REMARKS
JOHN DAY        MOCLDY      32  21  63  W9      29.61F
#ANTELOPE 9ESE  N/A         36  28  72  S1      N/A
#DAYVILLE SCHOOLN/A         36  16  44  NW3     29.64S
#MITCHELL 8NW   N/A         29  17  60  NW6     29.73R
#MONUMENT HS    N/A         31  26  81  S3      29.66S
#MT. VERNON 5SE N/A         30  20  66  W2      29.54F
#SPRAY SCHOOL   N/A         32  N/A N/A CALM    N/A
$$

ORZ506-181910-
OCHOCO AND JOHN DAY HIGHLANDS

CITY            SKY/WX      TMP DP  RH  WIND    PRES   REMARKS
#HORSE RIDGE DO N/A         29  14  53  W9      N/A
#KEYES SMT DOT  N/A         27  14  57  W10     N/A
#PAULINA ODOT   N/A         28  21  75  SW6     N/A
#PINE MTN OBS   N/A         19  13  77  W3      N/A
#PRAIRIE CITY   N/A         34  19  54  CALM    29.76R
#SENECA         N/A         27  N/A N/A N7      N/A
#SENECA 9NW     N/A         26  18  71  W2      29.62F
$$

ORZ049-181910-
GRANDE RONDE VALLEY

CITY            SKY/WX      TMP DP  RH  WIND    PRES   REMARKS
LA GRANDE       CLOUDY      33  21  61  N3      29.63S
#COVE SCHOOL    N/A         31  25  78  E1      29.67F
#COVE 6NW       N/A         33  28  82  CALM    29.69F
#ELGIN 3N       N/A         33  15  47  SW9     29.61S
#ELGIN 1E       N/A         32  22  66  CALM    N/A
#IMBLER SCHOOL  N/A         30  24  78  CALM    29.62S
#ISLAND CITY 4N N/A         34  33  96  SE3     29.72F
#LADD CYN DOT   N/A         34  27  75  NE3     N/A
#UNION 1S       N/A         32  26  78  E1      29.69F
$$

ORZ050-181910-
WALLOWA COUNTY

CITY            SKY/WX      TMP DP  RH  WIND    PRES   REMARKS
JOSEPH AIRPORT  CLOUDY      25  18  74  N9      29.55F
#ENTERPRISE HS  N/A         27  25  92  N3      29.52R
#IMNAHA SCHOOL  N/A         33  27  78  E1      29.67S
#JOSEPH         N/A         24  16  71  N12     29.80S WCI 13
#JOSEPH 3N      N/A         23  16  74  N8      29.63S
#JOSEPH 3W      N/A         28  19  68  CALM    29.42S
#LOSTINE        N/A         30  23  75  NW3     29.44F
#LOSTINE 3SE    N/A         32  21  63  SW1     29.63S
#MT HOWARD 8000 N/A         13  10  87  W10     29.32F
#WALLOWA LAKE   N/A         25  22  88  CALM    29.55F
#WALLOWA SCHOOL N/A         31  21  66  W1      29.62S



$$



USA.gov is the U.S. government's official web portal to all federal, state and local government web resources and services.